[[{"header":{"parameterUnit":"m.s-1","parameterCategory":1,"la1":30.2991,"la2":30.254,"lo1":-89.0895,"lo2":-89.0444,"dy":0.0017,"dx":0.0017,"nx":28,"ny":28,"refTime":"2023-08-30T03:00:00:Z","depth":0,"parameterNumber":2,"parameterNumberName":"U-component_of_WINDS"},"data":[0,0,0,0,0,0,0,0,0,0,0,0,0,0,0,0,0,0,0,0,0,0,0,0,0,0,0,0,0,0,0,0,0,0,0,0,0,0,0,0,0,0,0,0,0,0,0,0,0,0,0,0,0,0,0,0,0,0,-0.8198,-0.8199,0,-0.8248,-0.8248,-0.8249,-0.8179,-0.8177,-0.8174,-0.8172,-0.8224,-0.8228,-0.8231,0,0,0,0,0,0,0,0,0,0,0,0,0,-0.8045,-0.8048,-0.8198,-0.8199,-0.82,-0.8248,-0.8248,-0.8249,-0.818,-0.8177,-0.8174,-0.8171,-0.8223,-0.8227,-0.8232,0,0,0,0,0,0,0,0,0,0,0,0,0,-0.8105,-0.8049,-0.8198,-0.8171,-0.8169,-0.8247,-0.8248,-0.8249,-0.818,-0.8177,-0.8173,-0.8169,-0.8221,-0.8227,-0.8232,-0.834,0,0,-0.8249,-0.8251,0,0,0,0,0,0,0,0,-0.8102,-0.8111,-0.8174,-0.8173,-0.8171,-0.8203,-0.8213,-0.828,-0.8181,-0.8176,-0.8172,-0.8168,-0.822,-0.8226,-0.8243,-0.8343,-0.8345,-0.825,-0.8253,-0.8255,-0.8257,0,0,0,0,0,0,0,-0.8098,-0.8108,-0.8218,-0.8175,-0.8173,-0.8156,-0.8161,-0.8226,-0.8218,-0.8176,-0.8171,-0.8178,-0.8219,-0.8238,-0.8244,-0.8346,-0.8249,-0.8254,-0.8258,-0.826,-0.8538,-0.8542,0,0,0,0,0,0,-0.8097,-0.8105,-0.8216,-0.8219,-0.8126,-0.8162,-0.8167,-0.8197,-0.8217,-0.8217,-0.8181,-0.8175,-0.823,-0.8237,-0.8245,-0.8375,-0.8255,-0.826,-0.8264,-0.8534,-0.8539,-0.8543,0,0,0,0,0,0,-0.8094,-0.8107,-0.8214,-0.8161,-0.8173,-0.8169,-0.8203,-0.82,-0.8219,-0.8221,-0.822,-0.8202,-0.8228,-0.8238,-0.8317,-0.8376,-0.8263,-0.8268,-0.8529,-0.8535,-0.8541,-0.8634,0,0,0,0,0,0,-0.8089,-0.8106,-0.8148,-0.8162,-0.8176,-0.8286,-0.8206,-0.8203,-0.8229,-0.822,-0.8241,-0.824,-0.8225,-0.831,-0.8323,-0.8381,-0.8272,-0.8524,-0.8532,-0.8539,-0.8626,-0.8642,-0.8657,0,0,0,0,0,-0.8084,-0.8172,-0.815,-0.8164,-0.8228,-0.8289,-0.8297,-0.8278,-0.8233,-0.8275,-0.8276,-0.824,-0.8366,-0.8318,-0.8333,-0.8394,-0.852,-0.8529,-0.8538,-0.8619,-0.8639,-0.8656,0,0,0,0,0,0,-0.8165,-0.8173,-0.8149,-0.8244,-0.8267,-0.8277,-0.8329,-0.83,-0.8336,-0.8327,-0.8302,-0.8307,-0.8393,-0.84,-0.8347,-0.85,-0.8436,-0.8448,-0.8492,-0.8511,-0.8527,-0.8524,-0.8277,0,0,0,0,0,-0.8194,-0.8243,-0.8247,-0.8331,-0.8343,-0.8334,-0.836,-0.8344,-0.8366,-0.8375,-0.8382,-0.8406,-0.845,-0.8481,-0.8522,-0.8625,-0.8629,-0.8674,-0.869,-0.8702,-0.8714,-0.8771,-0.8791,-0.8573,-0.8573,-0.8573,0,0,-0.8254,-0.8264,-0.8297,-0.8347,-0.8363,-0.8415,-0.8343,-0.8401,-0.8439,-0.8384,-0.846,-0.8466,-0.849,-0.8583,-0.8624,-0.8592,-0.8775,-0.8714,-0.8724,-0.8729,-0.8782,-0.8803,-0.8821,-0.8579,-0.8578,-0.8577,0,0,-0.8391,-0.8403,-0.8475,-0.8491,-0.8515,-0.8508,-0.8525,-0.854,-0.8542,-0.8618,-0.8578,-0.8623,-0.87,-0.872,-0.874,-0.8883,-0.8851,-0.8896,-0.8979,-0.9034,-0.9051,-0.9067,-0.9119,-0.9138,-0.8908,-0.8908,-0.8908,0,-0.8463,-0.854,-0.8515,-0.8576,-0.86,-0.8551,-0.8623,-0.864,-0.8677,-0.8695,-0.8658,-0.8755,-0.8767,-0.8864,-0.8899,-0.8916,-0.8936,-0.8896,-0.9051,-0.9066,-0.9079,-0.913,-0.9149,-0.8914,-0.8913,-0.8912,-0.8912,0,-0.8628,-0.8682,-0.8736,-0.8773,-0.8802,-0.8868,-0.8854,-0.8887,-0.8867,-0.8864,-0.8942,-0.8955,-0.8999,-0.902,-0.9001,-0.9115,-0.9094,-0.9054,-0.899,-0.9106,-0.9153,-0.9172,-0.8922,-0.892,-0.8918,-0.8917,0,0,-0.882,-0.884,-0.8861,-0.8877,-0.8899,-0.894,-0.9004,-0.9046,-0.9076,-0.9102,-0.9156,-0.9222,-0.9185,-0.9208,-0.919,-0.9238,-0.9353,-0.9193,-0.9193,-0.9224,-0.948,-0.9512,-0.9535,-0.9331,-0.9334,-0.9337,-0.9479,0,-0.8958,-0.9069,-0.9049,-0.9157,-0.9207,-0.916,-0.9216,-0.9236,-0.9234,-0.9276,-0.9274,-0.9323,-0.927,-0.9283,-0.9328,-0.933,-0.9405,-0.9318,-0.9382,-0.9385,-0.9381,-0.9559,-0.9593,-0.9727,-0.9497,-0.95,-0.9502,0,-0.9135,-0.9168,-0.9281,-0.9295,-0.9315,-0.9366,-0.9403,-0.9443,-0.9465,-0.946,-0.9485,-0.9459,-0.9523,-0.9455,-0.9544,-0.9486,-0.951,-0.9515,-0.9519,-0.9527,-0.9453,-0.9574,-0.9769,-0.979,-0.953,-0.9528,-0.9526,0,-0.9267,-0.9338,-0.9416,-0.9431,-0.9448,-0.9485,-0.9494,-0.9512,-0.9538,-0.957,-0.9588,-0.9627,-0.9649,-0.968,-0.9665,-0.9617,-0.9757,-0.9688,-0.9757,-0.9758,-0.9791,-0.979,-0.9995,-0.9802,-0.9802,-0.9802,-0.9801,0,-0.9425,-0.9497,-0.9475,-0.9523,-0.9602,-0.9577,-0.9656,-0.966,-0.9675,-0.9724,-0.9684,-0.9731,-0.9706,-0.975,-0.9738,-0.9815,-0.9824,-0.9824,-0.982,-0.9829,-0.983,-0.9847,-0.9838,-0.9807,-0.9806,-0.9805,-0.9804,0,-0.9587,-0.9575,-0.9656,-0.9666,-0.967,-0.9728,-0.9737,-0.9782,-0.9776,-0.9838,-0.9851,-0.9843,-0.9893,-0.988,-0.9935,-0.9926,-1.0024,-1.0007,-1.0017,-1.0014,-1.0084,-1.0079,-1.031,-1.034,-1.0126,-1.0128,-1.0129,0,-0.969,-0.9744,-0.976,-0.9789,-0.9801,-0.9848,-0.9875,-0.9852,-0.9882,-0.9909,-0.9952,-0.9998,-1.0034,-1.0116,-1.0116,-1.0157,-1.0143,-1.0221,-1.0149,-1.0157,-1.0147,-1.0146,-1.0152,-1.0237,-1.0239,-1.0241,-1.0243,0,-0.9876,-0.9867,-0.9907,-0.9945,-0.9979,-1.0008,-1.0033,-1.0059,-1.0038,-1.0073,-1.0124,-1.0152,-1.0207,-1.0254,-1.0292,-1.0301,-1.027,-1.0265,-1.0283,-1.0295,-1.0299,-1.03,-1.0059,-1.0261,-1.0259,-1.0257,-1.0257,-1.0256,-1.0013,-1.0059,-1.0077,-1.0124,-1.014,-1.0165,-1.0208,-1.0207,-1.0249,-1.0292,-1.0275,-1.0334,-1.0353,-1.0401,-1.0415,-1.046,-1.0431,-1.0457,-1.0464,-1.0472,-1.0482,-1.0289,-1.0467,-1.0466,-1.0466,-1.0465,-1.0465,0,-1.0199,-1.0207,-1.025,-1.0287,-1.0323,-1.0288,-1.0314,-1.0347,-1.0399,-1.0419,-1.0455,-1.0514,-1.0559,-1.0562,-1.0604,-1.064,-1.0627,-1.0652,-1.0651,-1.0654,-1.0505,-1.0486,-1.0663,-1.0663,-1.0663,-1.0663,-1.0662,-1.0662,-1.03,-1.0377,-1.037,-1.0455,-1.0463,-1.052,-1.0538,-1.056,-1.0577,-1.0644,-1.0681,-1.0682,-1.0695,-1.0738,-1.0778,-1.0778,-1.0796,-1.0828,-1.0823,-1.0684,-1.0664,-1.0646,-1.0628,-1.0832,-1.0832,-1.0968,-1.097,-1.0971]},{"header":{"parameterUnit":"m.s-1","parameterCategory":1,"la1":30.2991,"la2":30.254,"lo1":-89.0895,"lo2":-89.0444,"dy":0.0017,"dx":0.0017,"nx":28,"ny":28,"refTime":"2023-08-30T03:00:00:Z","depth":0,"parameterNumber":3,"parameterNumberName":"V-component_of_WINDS"},"data":[0,0,0,0,0,0,0,0,0,0,0,0,0,0,0,0,0,0,0,0,0,0,0,0,0,0,0,0,0,0,0,0,0,0,0,0,0,0,0,0,0,0,0,0,0,0,0,0,0,0,0,0,0,0,0,0,0,0,-2.8204,-2.8204,0,-2.821,-2.821,-2.821,-2.8168,-2.8166,-2.8165,-2.8164,-2.817,-2.8172,-2.8173,0,0,0,0,0,0,0,0,0,0,0,0,0,-2.8154,-2.8155,-2.8204,-2.8204,-2.8204,-2.821,-2.821,-2.821,-2.8168,-2.8166,-2.8165,-2.8163,-2.817,-2.8171,-2.8173,0,0,0,0,0,0,0,0,0,0,0,0,0,-2.817,-2.8156,-2.8204,-2.8184,-2.8182,-2.821,-2.821,-2.821,-2.8168,-2.8166,-2.8164,-2.8163,-2.8169,-2.8171,-2.8173,-2.8221,0,0,-2.8179,-2.818,0,0,0,0,0,0,0,0,-2.8169,-2.8172,-2.8187,-2.8185,-2.8183,-2.8186,-2.8195,-2.8214,-2.8169,-2.8173,-2.8164,-2.8162,-2.8177,-2.8178,-2.8183,-2.8222,-2.8222,-2.8179,-2.818,-2.8181,-2.8182,0,0,0,0,0,0,0,-2.8168,-2.8171,-2.8206,-2.8187,-2.8185,-2.8174,-2.8174,-2.8198,-2.8185,-2.8173,-2.817,-2.8171,-2.8176,-2.8182,-2.8183,-2.8222,-2.8179,-2.8181,-2.8182,-2.8183,-2.8297,-2.8299,0,0,0,0,0,0,-2.817,-2.817,-2.8206,-2.8207,-2.8171,-2.8176,-2.8176,-2.8187,-2.8185,-2.8183,-2.8173,-2.8169,-2.8179,-2.8181,-2.8183,-2.8238,-2.8181,-2.8183,-2.8184,-2.8295,-2.8298,-2.83,0,0,0,0,0,0,-2.8169,-2.8173,-2.8206,-2.8188,-2.8191,-2.8179,-2.8191,-2.8188,-2.8194,-2.8185,-2.8182,-2.8181,-2.8178,-2.8181,-2.8212,-2.8237,-2.8184,-2.8186,-2.8293,-2.8296,-2.8299,-2.8348,0,0,0,0,0,0,-2.8167,-2.8173,-2.8192,-2.8188,-2.8192,-2.8235,-2.8193,-2.819,-2.8197,-2.8193,-2.8192,-2.819,-2.8177,-2.8209,-2.8214,-2.8239,-2.8187,-2.8291,-2.8295,-2.8298,-2.8344,-2.8352,-2.8359,0,0,0,0,0,-2.8166,-2.8206,-2.8193,-2.8198,-2.8215,-2.8237,-2.8239,-2.8222,-2.82,-2.8218,-2.8211,-2.819,-2.8234,-2.8213,-2.8217,-2.8244,-2.8289,-2.8293,-2.8298,-2.8341,-2.8351,-2.8359,0,0,0,0,0,0,-2.8213,-2.8205,-2.8191,-2.8231,-2.8235,-2.8229,-2.8252,-2.8234,-2.8244,-2.8239,-2.8219,-2.8219,-2.8253,-2.8252,-2.8228,-2.8289,-2.8257,-2.8263,-2.8289,-2.8298,-2.8305,-2.8305,-2.8189,0,0,0,0,0,-2.8229,-2.8247,-2.8239,-2.8275,-2.8277,-2.8264,-2.8273,-2.826,-2.8263,-2.8264,-2.826,-2.8264,-2.8278,-2.8288,-2.8301,-2.8344,-2.8342,-2.8364,-2.8372,-2.8378,-2.8383,-2.8403,-2.8412,-2.8314,-2.8314,-2.8313,0,0,-2.826,-2.8258,-2.8271,-2.8284,-2.8286,-2.8304,-2.8266,-2.8288,-2.8301,-2.8268,-2.8296,-2.8293,-2.8296,-2.8332,-2.8348,-2.8332,-2.8409,-2.8383,-2.8388,-2.839,-2.8408,-2.8417,-2.8426,-2.8316,-2.8316,-2.8315,0,0,-2.8327,-2.8328,-2.8357,-2.8359,-2.8361,-2.8351,-2.8358,-2.8355,-2.8352,-2.838,-2.8355,-2.837,-2.8396,-2.8398,-2.8402,-2.8467,-2.8447,-2.8472,-2.8511,-2.8531,-2.8539,-2.8546,-2.8567,-2.8575,-2.8477,-2.8477,-2.8477,0,-2.8366,-2.8393,-2.8375,-2.8397,-2.8403,-2.8373,-2.8402,-2.8404,-2.8411,-2.8415,-2.8397,-2.8427,-2.8427,-2.8462,-2.8478,-2.8483,-2.8489,-2.8472,-2.8539,-2.8546,-2.8552,-2.8572,-2.8581,-2.848,-2.848,-2.8479,-2.8479,0,-2.844,-2.8459,-2.8482,-2.8488,-2.8496,-2.8522,-2.8507,-2.8518,-2.8504,-2.8496,-2.8524,-2.8522,-2.8533,-2.8541,-2.8528,-2.8574,-2.8564,-2.8543,-2.8511,-2.8565,-2.8583,-2.8591,-2.8484,-2.8483,-2.8482,-2.8481,0,0,-2.8538,-2.8531,-2.854,-2.8541,-2.854,-2.8554,-2.8578,-2.8588,-2.8597,-2.8602,-2.862,-2.8642,-2.8622,-2.8627,-2.8614,-2.8631,-2.8681,-2.8608,-2.8608,-2.862,-2.8729,-2.8744,-2.8753,-2.8668,-2.8669,-2.867,-2.8728,0,-2.8602,-2.8641,-2.8624,-2.8666,-2.8682,-2.8652,-2.8673,-2.8674,-2.8667,-2.8679,-2.8671,-2.8686,-2.866,-2.8662,-2.8679,-2.8671,-2.8702,-2.8667,-2.8683,-2.8684,-2.8682,-2.8763,-2.8779,-2.8834,-2.8736,-2.8737,-2.8738,0,-2.8682,-2.8688,-2.8731,-2.8725,-2.8731,-2.8749,-2.8756,-2.8769,-2.8769,-2.8762,-2.8767,-2.8749,-2.877,-2.8739,-2.8768,-2.8744,-2.875,-2.8747,-2.8749,-2.8749,-2.8714,-2.8764,-2.8852,-2.8859,-2.8749,-2.8749,-2.8748,0,-2.8747,-2.8767,-2.8794,-2.8796,-2.879,-2.8803,-2.8802,-2.88,-2.8806,-2.8812,-2.8816,-2.8824,-2.8829,-2.8836,-2.882,-2.8799,-2.885,-2.8818,-2.8844,-2.8845,-2.8856,-2.8855,-2.8944,-2.8862,-2.8862,-2.8862,-2.8861,0,-2.8819,-2.8846,-2.8822,-2.8839,-2.8868,-2.8848,-2.8876,-2.8871,-2.8869,-2.8884,-2.886,-2.8874,-2.8853,-2.8865,-2.8853,-2.8877,-2.888,-2.8874,-2.8871,-2.8876,-2.8876,-2.8879,-2.8874,-2.8864,-2.8863,-2.8863,-2.8862,0,-2.8896,-2.8882,-2.891,-2.8901,-2.8899,-2.8921,-2.8913,-2.8927,-2.8918,-2.8937,-2.894,-2.8926,-2.8938,-2.8923,-2.8935,-2.8926,-2.8959,-2.895,-2.8959,-2.8956,-2.8983,-2.898,-2.9075,-2.9086,-2.8998,-2.8999,-2.9,0,-2.8943,-2.8963,-2.8955,-2.8963,-2.8962,-2.8975,-2.8981,-2.8961,-2.8968,-2.8969,-2.8983,-2.8993,-2.9,-2.9021,-2.9011,-2.902,-2.901,-2.9043,-2.9011,-2.9015,-2.9008,-2.9007,-2.9008,-2.9049,-2.905,-2.9051,-2.9052,0,-2.9027,-2.9018,-2.9027,-2.9033,-2.9041,-2.9045,-2.9047,-2.9055,-2.9034,-2.9043,-2.9055,-2.906,-2.9071,-2.9081,-2.9086,-2.9084,-2.9064,-2.9062,-2.9068,-2.9073,-2.9076,-2.9073,-2.8975,-2.906,-2.9059,-2.9058,-2.9058,-2.9057,-2.9089,-2.9104,-2.9101,-2.9111,-2.911,-2.9112,-2.9125,-2.9117,-2.9126,-2.9133,-2.9121,-2.9135,-2.9133,-2.9137,-2.9137,-2.9147,-2.9133,-2.9143,-2.9145,-2.9147,-2.915,-2.9075,-2.9148,-2.9148,-2.9148,-2.9148,-2.9147,0,-2.917,-2.9166,-2.9175,-2.9178,-2.9186,-2.9166,-2.9167,-2.9175,-2.9188,-2.9187,-2.9194,-2.9207,-2.9215,-2.9206,-2.9213,-2.9223,-2.9214,-2.9225,-2.9224,-2.9223,-2.9164,-2.9157,-2.9232,-2.9232,-2.9232,-2.9232,-2.9232,-2.9232,-2.9213,-2.9236,-2.9227,-2.9249,-2.9245,-2.9258,-2.926,-2.9262,-2.926,-2.9275,-2.9282,-2.9276,-2.9271,-2.9277,-2.9283,-2.928,-2.9283,-2.9298,-2.9291,-2.9236,-2.9227,-2.9219,-2.9213,-2.9299,-2.9299,-2.9349,-2.935,-2.935]}]]